TimeIST,TemperatureF,Dew PointF,Humidity,Sea Level PressureIn,VisibilityMPH,Wind Direction,Wind SpeedMPH,Gust SpeedMPH,PrecipitationIn,Events,Conditions,WindDirDegrees,DateUTC
12:00 AM,59.0,57.2,94,29.53,2.5,ESE,2.3,-,N/A,Rain,Light Rain,110,2013-10-03 23:00:00
12:30 AM,59.0,57.2,94,29.53,2.5,Variable,2.3,-,N/A,Rain,Light Rain,0,2013-10-03 23:30:00
1:00 AM,58,57,97,29.55,2,SE,2.2,,,Rain,Light Rain,140,2013-10-04 00:00:00
1:00 AM,57.2,57.2,100,29.53,2.5,SSE,1.2,-,N/A,Rain,Light Rain,150,2013-10-04 00:00:00
1:30 AM,57.2,57.2,100,29.53,2.5,East,3.5,-,N/A,Rain,Light Rain,100,2013-10-04 00:30:00
2:00 AM,57.2,57.2,100,29.56,2.2,SE,2.3,-,N/A,Rain,Light Rain,130,2013-10-04 01:00:00
2:30 AM,57.2,57.2,100,29.56,2.2,North,1.2,-,N/A,Rain,Light Rain,360,2013-10-04 01:30:00
3:00 AM,57.2,57.2,100,29.56,2.2,West,1.2,-,N/A,Rain,Light Rain,280,2013-10-04 02:00:00
3:30 AM,57.2,57.2,100,29.56,2.5,West,1.2,-,N/A,,Mostly Cloudy,280,2013-10-04 02:30:00
4:00 AM,57.2,57.2,100,29.56,2.5,West,3.5,-,N/A,,Mostly Cloudy,280,2013-10-04 03:00:00
4:30 AM,57.2,57.2,100,29.56,3.1,WNW,4.6,-,N/A,,Mostly Cloudy,290,2013-10-04 03:30:00
5:30 AM,59.0,57.2,94,29.56,3.1,WNW,5.8,-,N/A,,Mostly Cloudy,290,2013-10-04 04:30:00
6:00 AM,59.0,57.2,94,29.56,3.7,WNW,6.9,-,N/A,,Mostly Cloudy,290,2013-10-04 05:00:00
6:30 AM,59.0,57.2,94,29.56,4.3,WNW,9.2,-,N/A,,Mostly Cloudy,290,2013-10-04 05:30:00
7:00 AM,58,57,94,29.60,7,West,11.2,,,,Mist,280,2013-10-04 06:00:00
7:00 AM,57.2,57.2,100,29.59,6.2,West,11.5,-,N/A,,Mostly Cloudy,280,2013-10-04 06:00:00
7:30 AM,57.2,55.4,94,29.59,6.2,West,12.7,-,N/A,,Mostly Cloudy,280,2013-10-04 06:30:00
8:00 AM,55.4,55.4,100,29.62,6.2,West,11.5,-,N/A,,Light Drizzle,280,2013-10-04 07:00:00
8:30 AM,55.4,55.4,100,29.62,6.2,West,12.7,-,N/A,,Mostly Cloudy,270,2013-10-04 07:30:00
9:00 AM,55.4,55.4,100,29.62,6.2,West,12.7,-,N/A,,Mostly Cloudy,270,2013-10-04 08:00:00
9:30 AM,57.2,55.4,94,29.65,6.2,West,13.8,-,N/A,,Mostly Cloudy,270,2013-10-04 08:30:00
10:00 AM,57.2,55.4,94,29.65,6.2,West,15.0,-,N/A,,Mostly Cloudy,270,2013-10-04 09:00:00
10:30 AM,57.2,53.6,88,29.68,6.2,West,16.1,-,N/A,,Mostly Cloudy,270,2013-10-04 09:30:00
11:00 AM,57.2,53.6,88,29.68,6.2,West,15.0,-,N/A,,Mostly Cloudy,280,2013-10-04 10:00:00
11:30 AM,59.0,53.6,82,29.68,6.2,West,12.7,-,N/A,,Mostly Cloudy,280,2013-10-04 10:30:00
12:00 PM,59.0,53.6,82,29.71,6.2,WNW,12.7,-,N/A,,Light Drizzle,290,2013-10-04 11:00:00
12:30 PM,59.0,53.6,82,29.71,6.2,West,13.8,-,N/A,,Mostly Cloudy,280,2013-10-04 11:30:00
1:00 PM,60,56,81,29.74,25,West,13.4,,,Rain,Light Rain Showers,280,2013-10-04 12:00:00
1:00 PM,60.8,55.4,82,29.71,6.2,West,13.8,-,N/A,Rain,Light Rain Showers,270,2013-10-04 12:00:00
1:30 PM,62.6,53.6,72,29.74,6.2,West,12.7,-,N/A,,Scattered Clouds,270,2013-10-04 12:30:00
2:00 PM,59.0,53.6,82,29.74,6.2,West,15.0,-,N/A,,Mostly Cloudy,280,2013-10-04 13:00:00
2:30 PM,60.8,53.6,77,29.74,6.2,West,12.7,-,N/A,,Mostly Cloudy,260,2013-10-04 13:30:00
3:00 PM,59.0,55.4,88,29.77,6.2,WNW,12.7,-,N/A,,Mostly Cloudy,300,2013-10-04 14:00:00
3:30 PM,60.8,55.4,82,29.77,6.2,West,10.4,-,N/A,,Mostly Cloudy,260,2013-10-04 14:30:00
4:00 PM,60.8,53.6,77,29.77,6.2,West,11.5,-,N/A,,Mostly Cloudy,260,2013-10-04 15:00:00
4:30 PM,60.8,55.4,82,29.80,6.2,WSW,10.4,-,N/A,,Mostly Cloudy,240,2013-10-04 15:30:00
5:00 PM,60.8,53.6,77,29.80,-9999.0,West,12.7,-,N/A,,Mostly Cloudy,260,2013-10-04 16:00:00
5:30 PM,59.0,53.6,82,29.80,-9999.0,West,11.5,-,N/A,Rain,Light Rain Showers,280,2013-10-04 16:30:00
6:00 PM,59.0,53.6,82,29.80,-9999.0,WSW,8.1,-,N/A,,Mostly Cloudy,250,2013-10-04 17:00:00
6:30 PM,59.0,53.6,82,29.83,-9999.0,West,11.5,-,N/A,,Mostly Cloudy,260,2013-10-04 17:30:00
7:00 PM,58,54,82,29.86,25,West,8.9,,,Rain,Light Rain Showers,280,2013-10-04 18:00:00
7:00 PM,57.2,53.6,88,29.83,-9999.0,West,9.2,-,N/A,,Mostly Cloudy,270,2013-10-04 18:00:00
7:30 PM,57.2,53.6,88,29.86,6.2,West,10.4,-,N/A,Rain,Light Rain Showers,280,2013-10-04 18:30:00
8:00 PM,55.4,53.6,94,29.86,6.2,West,6.9,-,N/A,,Scattered Clouds,280,2013-10-04 19:00:00
8:30 PM,55.4,53.6,94,29.89,6.2,West,6.9,-,N/A,,Mostly Cloudy,270,2013-10-04 19:30:00
9:00 PM,55.4,53.6,94,29.89,6.2,West,8.1,-,N/A,,Mostly Cloudy,270,2013-10-04 20:00:00
9:30 PM,57.2,53.6,88,29.89,6.2,West,9.2,-,N/A,,Mostly Cloudy,280,2013-10-04 20:30:00
10:00 PM,55.4,53.6,94,29.92,6.2,West,6.9,-,N/A,,Light Drizzle,280,2013-10-04 21:00:00
10:30 PM,55.4,53.6,94,29.92,6.2,West,10.4,-,N/A,,Light Drizzle,280,2013-10-04 21:30:00
11:00 PM,53.6,51.8,94,29.92,6.2,West,10.4,-,N/A,,Light Drizzle,280,2013-10-04 22:00:00
11:30 PM,53.6,50.0,88,29.92,6.2,West,6.9,-,N/A,,Mostly Cloudy,260,2013-10-04 22:30:00